Skip Page Navigation
NASA JPL Caltech
NASA Logo - Jet Propulsion Laboratory + View the NASA Portal
+ Near-Earth Object (NEO) Program
Search JPL
JPL Home Earth Solar System Stars & Galaxies Technology
JPL Solar System Dynamics
BODIES ORBITS EPHEMERIDES TOOLS PHYSICAL DATA DISCOVERY FAQ SITE MAP
JPL Small-Body Database Browser
Search: [ help ]  
28004 Terakawa (1997 XA)
Classification: Main-belt Asteroid          SPK-ID: 2028004
Ephemeris | Orbit Diagram | Orbital Elements | Physical Parameters | Discovery Circumstances | Close-Approach Data ]

[ hide orbit diagram ]
Orbit Diagram
Note: Make sure you have Java enabled on your browser to see the applet. This applet is provided as a 3D orbit visualization tool. The applet was implemented using 2-body methods, and hence should not be used for determining accurate long-term trajectories (over several years or decades) or planetary encounter circumstances. For accurate long-term ephemerides, please instead use our Horizons system.
Orbit Viewer

Additional Notes: the orbits shown in the applet are color coded. The planets are white lines, and the asteroid/comet is a blue line. The bright white line indicates the portion of the orbit that is above the ecliptic plane, and the darker portion is below the ecliptic plane. Likewise for the asteroid/comet orbit, the light blue indicates the portion above the ecliptic plane, and the dark blue the portion below the ecliptic plane.

Orbit Viewer applet originally written and kindly provided by Osamu Ajiki (AstroArts), and further modified by Ron Baalke (JPL).


Orbital Elements at Epoch 2456400.5 (2013-Apr-18.0) TDB
Reference: JPL 1 (heliocentric ecliptic J2000)
 Element Value Uncertainty (1-sigma)   Units 
e .1939097723310602 7.7077e-08  
a 2.783004459806776 3.1342e-08 AU
q 2.243352698609319 2.0786e-07 AU
i 8.980937535637199 9.1712e-06 deg
node 246.2158007998368 4.9818e-05 deg
peri 201.7046509263603 5.6816e-05 deg
M 94.41803391723643 2.3204e-05 deg
tp 2455955.744085319455
(2012-Jan-29.24408532)
0.00010948 JED
period 1695.779107467384
4.64
2.8647e-05
7.843e-08
d
yr
n .2122918005150173 3.5862e-09 deg/d
Q 3.322656221004233 3.742e-08 AU
  Orbit Determination Parameters
   # obs. used (total)      533  
   data-arc span      6150 days (16.84 yr)  
   first obs. used      1996-06-20  
   last obs. used      2013-04-22  
   planetary ephem.      DE405  
   SB-pert. ephem.      SB405-CPV-2  
   condition code      0  
   fit RMS      .58289  
   data source      ORB  
   producer      Otto Matic  
   solution date      2013-Apr-29 14:47:55  

Additional Information
 Earth MOID = 1.26154 AU 
 T_jup = 3.287 
[ show covariance matrix ]

Ephemeris | Orbit Diagram | Orbital Elements | Physical Parameters | Discovery Circumstances | Close-Approach Data ]

Physical Parameter Table
Parameter Symbol Value Units Sigma Reference Notes
absolute magnitude H 14.0 mag n/a PDS3 (MPO 15226)  

28004 Terakawa           Discovered 1997 Dec. 2 by M. Akiyama at Mishima.
Expert mirror polisher Syoji Terakawa (b. 1951) has had an interest in telescope making and astronomy since he was 14 years old.
NOTE: some special characters may not display properly (any characters within {} are an attempt to place the proper accent above a character)
Reference: 20020427/MPCPages.arcLast Updated: 2003-10-02

[ show close-approach data ]
Alternate Designations
 1997 XA = 1999 DT2 
Ephemeris | Orbit Diagram | Orbital Elements | Physical Parameters | Discovery Circumstances | Close-Approach Data ]
ABOUT SSD CREDITS/AWARDS PRIVACY/COPYRIGHT GLOSSARY LINKS
FirstGov 2013-May-18 22:10 UT
(server date/time)  
NASA Home Page
Site Manager:   Donald K. Yeomans
Webmaster  Alan B. Chamberlin